Time,TemperatureF,DewpointF,PressureIn,WindDirection,WindDirectionDegrees,WindSpeedMPH,WindSpeedGustMPH,Humidity,HourlyPrecipIn,Conditions,Clouds,dailyrainin,SoftwareType,DateUTC
2013-02-27 00:01:00,40.0,-99.9,-100.00,South,186,4.0,4.0,-999,-99.99,,,-99.99,,2013-02-27 07:01:00,
2013-02-27 00:12:00,40.0,-99.9,-100.00,South,186,4.0,4.0,-999,-99.99,,,-99.99,,2013-02-27 07:12:00,
2013-02-27 00:22:00,39.0,-99.9,-100.00,South,171,4.0,6.0,-999,-99.99,,,-99.99,,2013-02-27 07:22:00,
2013-02-27 01:22:00,39.0,-99.9,-100.00,SSE,167,6.0,8.0,-999,-99.99,,,-99.99,,2013-02-27 08:22:00,
2013-02-27 01:32:00,37.0,-99.9,-100.00,SSE,160,3.0,7.0,-999,-99.99,,,-99.99,,2013-02-27 08:32:00,
2013-02-27 01:42:00,37.0,-99.9,-100.00,SSE,160,3.0,7.0,-999,-99.99,,,-99.99,,2013-02-27 08:42:00,
2013-02-27 01:53:00,37.0,-99.9,-100.00,SSE,160,3.0,7.0,-999,-99.99,,,-99.99,,2013-02-27 08:53:00,
2013-02-27 02:02:00,36.0,-99.9,-100.00,South,169,5.0,5.0,-999,-99.99,,,-99.99,,2013-02-27 09:02:00,
2013-02-27 02:12:00,36.0,-99.9,-100.00,South,169,5.0,5.0,-999,-99.99,,,-99.99,,2013-02-27 09:12:00,
2013-02-27 02:22:00,36.0,-99.9,-100.00,South,169,5.0,5.0,-999,-99.99,,,-99.99,,2013-02-27 09:22:00,
2013-02-27 02:52:00,35.0,-99.9,-100.00,West,264,2.0,6.0,-999,-99.99,,,-99.99,,2013-02-27 09:52:00,
2013-02-27 03:01:00,34.0,-99.9,-100.00,South,172,3.0,4.0,-999,-99.99,,,-99.99,,2013-02-27 10:01:00,
2013-02-27 03:13:00,34.0,-99.9,-100.00,South,172,3.0,4.0,-999,-99.99,,,-99.99,,2013-02-27 10:13:00,
2013-02-27 03:22:00,34.0,-99.9,-100.00,South,172,3.0,4.0,-999,-99.99,,,-99.99,,2013-02-27 10:22:00,
2013-02-27 04:03:00,31.0,-99.9,-100.00,SE,145,3.0,4.0,-999,-99.99,,,-99.99,,2013-02-27 11:03:00,
2013-02-27 04:12:00,31.0,-99.9,-100.00,SE,145,3.0,4.0,-999,-99.99,,,-99.99,,2013-02-27 11:12:00,
2013-02-27 04:22:00,31.0,-99.9,-100.00,SE,145,3.0,4.0,-999,-99.99,,,-99.99,,2013-02-27 11:22:00,
2013-02-27 04:32:00,31.0,-99.9,-100.00,WSW,251,2.0,3.0,-999,-99.99,,,-99.99,,2013-02-27 11:32:00,
2013-02-27 04:42:00,31.0,-99.9,-100.00,WSW,251,2.0,3.0,-999,-99.99,,,-99.99,,2013-02-27 11:42:00,
2013-02-27 05:00:00,28.0,-99.9,-100.00,WSW,255,1.0,2.0,-999,-99.99,,,-99.99,,2013-02-27 12:00:00,
2013-02-27 05:33:00,28.0,-99.9,-100.00,ESE,112,2.0,2.0,-999,-99.99,,,-99.99,,2013-02-27 12:33:00,
2013-02-27 05:42:00,28.0,-99.9,-100.00,ESE,112,2.0,2.0,-999,-99.99,,,-99.99,,2013-02-27 12:42:00,
2013-02-27 05:53:00,28.0,-99.9,-100.00,WSW,255,1.0,2.0,-999,-99.99,,,-99.99,,2013-02-27 12:53:00,
2013-02-27 06:00:00,25.0,-99.9,-100.00,ESE,105,2.0,8.0,-999,-99.99,,,-99.99,,2013-02-27 13:00:00,
2013-02-27 06:53:00,25.0,-99.9,-100.00,ESE,105,2.0,8.0,-999,-99.99,,,-99.99,,2013-02-27 13:53:00,
2013-02-27 07:22:00,25.0,-99.9,-100.00,NNE,27,1.0,2.0,-999,-99.99,,,-99.99,,2013-02-27 14:22:00,
2013-02-27 07:32:00,25.0,-99.9,-100.00,NNE,27,1.0,2.0,-999,-99.99,,,-99.99,,2013-02-27 14:32:00,
2013-02-27 08:23:00,30.0,-99.9,-100.00,East,91,4.0,4.0,-999,-99.99,,,-99.99,,2013-02-27 15:23:00,
2013-02-27 08:30:00,34.0,-99.9,-100.00,West,259,2.0,3.0,-999,-99.99,,,-99.99,,2013-02-27 15:30:00,
2013-02-27 08:32:00,30.0,-99.9,-100.00,East,91,4.0,4.0,-999,-99.99,,,-99.99,,2013-02-27 15:32:00,
2013-02-27 09:02:00,34.0,-99.9,-100.00,West,259,2.0,3.0,-999,-99.99,,,-99.99,,2013-02-27 16:02:00,
2013-02-27 09:12:00,34.0,-99.9,-100.00,West,259,2.0,3.0,-999,-99.99,,,-99.99,,2013-02-27 16:12:00,
2013-02-27 09:22:00,34.0,-99.9,-100.00,West,259,2.0,3.0,-999,-99.99,,,-99.99,,2013-02-27 16:22:00,
2013-02-27 10:02:00,36.0,-99.9,-100.00,SW,234,1.0,5.0,-999,-99.99,,,-99.99,,2013-02-27 17:02:00,
2013-02-27 10:11:00,36.0,-99.9,-100.00,SW,234,1.0,5.0,-999,-99.99,,,-99.99,,2013-02-27 17:11:00,
2013-02-27 11:02:00,40.0,-99.9,-100.00,South,187,1.0,4.0,-999,-99.99,,,-99.99,,2013-02-27 18:02:00,
2013-02-27 11:11:00,40.0,-99.9,-100.00,South,187,1.0,4.0,-999,-99.99,,,-99.99,,2013-02-27 18:11:00,
2013-02-27 12:02:00,43.0,-99.9,-100.00,West,279,4.0,5.0,-999,-99.99,,,-99.99,,2013-02-27 19:02:00,
2013-02-27 12:12:00,43.0,-99.9,-100.00,West,279,4.0,5.0,-999,-99.99,,,-99.99,,2013-02-27 19:12:00,
2013-02-27 12:30:00,46.0,-99.9,-100.00,West,263,3.0,6.0,-999,-99.99,,,-99.99,,2013-02-27 19:30:00,
2013-02-27 13:02:00,46.0,-99.9,-100.00,WNW,284,3.0,4.0,-999,-99.99,,,-99.99,,2013-02-27 20:02:00,
2013-02-27 13:12:00,46.0,-99.9,-100.00,WNW,284,3.0,4.0,-999,-99.99,,,-99.99,,2013-02-27 20:12:00,
2013-02-27 13:22:00,46.0,-99.9,-100.00,West,263,3.0,6.0,-999,-99.99,,,-99.99,,2013-02-27 20:22:00,
2013-02-27 13:30:00,49.0,-99.9,-100.00,SSW,195,0.0,4.0,-999,-99.99,,,-99.99,,2013-02-27 20:30:00,
2013-02-27 14:22:00,49.0,-99.9,-100.00,SSW,195,0.0,4.0,-999,-99.99,,,-99.99,,2013-02-27 21:22:00,
2013-02-27 14:30:00,47.0,-99.9,-100.00,NW,306,1.0,2.0,-999,-99.99,,,-99.99,,2013-02-27 21:30:00,
2013-02-27 15:22:00,47.0,-99.9,-100.00,NW,306,1.0,2.0,-999,-99.99,,,-99.99,,2013-02-27 22:22:00,
2013-02-27 15:30:00,49.0,-99.9,-100.00,SSE,164,3.0,3.0,-999,-99.99,,,-99.99,,2013-02-27 22:30:00,
2013-02-27 16:22:00,49.0,-99.9,-100.00,SSE,164,3.0,3.0,-999,-99.99,,,-99.99,,2013-02-27 23:22:00,
2013-02-27 17:22:00,50.0,-99.9,-100.00,NE,49,0.0,1.0,-999,-99.99,,,-99.99,,2013-02-28 00:22:00,
2013-02-27 17:32:00,48.0,-99.9,-100.00,WNW,286,2.0,6.0,-999,-99.99,,,-99.99,,2013-02-28 00:32:00,
2013-02-27 17:42:00,48.0,-99.9,-100.00,WNW,286,2.0,6.0,-999,-99.99,,,-99.99,,2013-02-28 00:42:00,
2013-02-27 17:52:00,48.0,-99.9,-100.00,WNW,286,2.0,6.0,-999,-99.99,,,-99.99,,2013-02-28 00:52:00,
2013-02-27 18:00:00,47.0,-99.9,-100.00,West,271,0.0,0.0,-999,-99.99,,,-99.99,,2013-02-28 01:00:00,
2013-02-27 18:32:00,47.0,-99.9,-100.00,West,271,0.0,0.0,-999,-99.99,,,-99.99,,2013-02-28 01:32:00,
2013-02-27 18:42:00,47.0,-99.9,-100.00,West,271,0.0,0.0,-999,-99.99,,,-99.99,,2013-02-28 01:42:00,
2013-02-27 18:52:00,47.0,-99.9,-100.00,West,271,0.0,0.0,-999,-99.99,,,-99.99,,2013-02-28 01:52:00,
2013-02-27 19:32:00,43.0,-99.9,-100.00,West,281,0.0,1.0,-999,-99.99,,,-99.99,,2013-02-28 02:32:00,
2013-02-27 19:42:00,43.0,-99.9,-100.00,West,281,0.0,1.0,-999,-99.99,,,-99.99,,2013-02-28 02:42:00,
2013-02-27 19:52:00,43.0,-99.9,-100.00,West,281,0.0,1.0,-999,-99.99,,,-99.99,,2013-02-28 02:52:00,
2013-02-27 20:00:00,34.0,-99.9,-100.00,South,170,1.0,1.0,-999,-99.99,,,-99.99,,2013-02-28 03:00:00,
2013-02-27 20:02:00,41.0,-99.9,-100.00,South,184,0.0,0.0,-999,-99.99,,,-99.99,,2013-02-28 03:02:00,
2013-02-27 20:11:00,41.0,-99.9,-100.00,South,184,0.0,0.0,-999,-99.99,,,-99.99,,2013-02-28 03:11:00,
2013-02-27 20:22:00,41.0,-99.9,-100.00,South,184,0.0,0.0,-999,-99.99,,,-99.99,,2013-02-28 03:22:00,
2013-02-27 20:52:00,34.0,-99.9,-100.00,South,170,1.0,1.0,-999,-99.99,,,-99.99,,2013-02-28 03:52:00,
2013-02-27 21:32:00,29.0,-99.9,-100.00,NNE,30,1.0,1.0,-999,-99.99,,,-99.99,,2013-02-28 04:32:00,
2013-02-27 21:42:00,29.0,-99.9,-100.00,NNE,30,1.0,1.0,-999,-99.99,,,-99.99,,2013-02-28 04:42:00,
2013-02-27 21:52:00,29.0,-99.9,-100.00,NNE,30,1.0,1.0,-999,-99.99,,,-99.99,,2013-02-28 04:52:00,
2013-02-27 22:32:00,30.0,-99.9,-100.00,WSW,249,2.0,2.0,-999,-99.99,,,-99.99,,2013-02-28 05:32:00,
2013-02-27 22:43:00,30.0,-99.9,-100.00,WSW,249,2.0,2.0,-999,-99.99,,,-99.99,,2013-02-28 05:43:00,
2013-02-27 22:52:00,30.0,-99.9,-100.00,WSW,249,2.0,2.0,-999,-99.99,,,-99.99,,2013-02-28 05:52:00,
2013-02-27 23:32:00,27.0,-99.9,-100.00,ENE,75,0.0,0.0,-999,-99.99,,,-99.99,,2013-02-28 06:32:00,
2013-02-27 23:40:00,27.0,-99.9,-100.00,West,272,2.0,3.0,-999,-99.99,,,-99.99,,2013-02-28 06:40:00,
2013-02-27 23:52:00,25.0,-99.9,-100.00,NNE,27,1.0,1.0,-999,-99.99,,,-99.99,,2013-02-28 06:52:00,